SL-16 DEB

Satellite information

Favourite Embed

Satellite Type and Status

DEBRISIN ORBIT

Key statistics

Satellite SL-16 DEB at a glance.

Uptime

11942

Days in orbit

Revolutions

≈ 14.0

Per day

Orbit

LEO

Low Earth Orbit

Inclination

70.9

Latest

Satellite identification and parameters

Extended collection of information and parameters for SL-16 DEB.

Object identification

Identified? True

Debris? True

Object name: SL-16 DEB

International designator: 1992-093KQ

Object number (NORAD): 39724

Object ID (CCSDS): 39724

Country: COMMONWEALTH OF INDEPENDENT STATES (CIS)

Current information (Y/N): Y

RCS size: SMALL

Orbital parameters

Period: 102.647 minutes

Inclination: 70.8506 deg

SMA: 7262.012 km

Apoapsis: 948.421 km

Periapsis: 819.333 km

RAAN: 146.7038 deg

Eccentricy: 0.00888787

Argument of periapsis: 2.8811 deg

Mean anomaly: 357.2797 deg

Mean motion: 14.02869589 rev/day

Mean motion (dot): 0.00001005 rev/day2

B* drag term: 0.00065615706 1/REarth

Two-line elements (TLE)

Creation date: Sept. 1, 2025, 7:24 p.m.

Reference frame: TEME

Reference center: EARTH

Epoch: Sept. 1, 2025, 11:23 a.m. UTC

TLE line 0: 0 SL-16 DEB

TLE line 1: 1 39724U 92093KQ 25244.47496556 .00001005 00000-0 65616-3 0 9994

TLE line 2: 2 39724 70.8506 146.7038 0088879 2.8811 357.2797 14.02869589581749

Live tracking on map

Real-time ground track for satellite SL-16 DEB.

In-orbit conjunctions

A list of the most updated potential collisions computed for object SL-16 DEB.

Target Orbit TCA Probability of collision Miss distance Type
THORAD AGENA D DEB SSO 2025-03-11 14:12:15 0.000101482 71.0 (m) DEBRIS
CZ-6A DEB LEO 2025-03-03 05:42:22 0.0002081195 678.0 (m) DEBRIS
SL-3 R/B LEO 2024-09-02 09:03:06 0.0002160744 745.0 (m) ROCKET BODY

Associated space launch

Second generation ELING satellite

SL-16 DEB was lifted into orbit during the mission ‘Zenit-2 | Tselina-2 12’, on board a Zenit-2 space rocket.

The launch took place on Dec. 25, 1992, 5:56 a.m. from 45/1.

For more information about the launch, click the button.

Launch to space Zenit-2 | Tselina-2 12
Zenit-2 | Tselina-2 12

Agency: N/A

Status: Launch Successful

Launch date: Dec. 25, 1992, 5:56 a.m. UTC

Rocket: Zenit-2

Launch pad: 45/1

Location: Baikonur Cosmodrome, Republic of Kazakhstan

...

Latest news about this satellite

There are no fresh news available about this satellite. Check back as we update our databases every day.


Newsletter sign-up

Weekly statistics, charts and insights to help you stay on top of the space industry.